Tracking 19638 objects as of 20-May-2019
HD Live streaming from Space Station
objects crossing your sky now

GALAXY 3C

Track GALAXY 3C now!
GALAXY 3C is classified as:


NORAD ID: 27445
Int'l Code: 2002-030A
Perigee: 35,784.8 km
Apogee: 35,803.3 km
Inclination: 0.0 °
Period: 1,436.1 minutes
Semi major axis: 42165 km
RCS: 36.41 m2 (large)
Launch date: June 15, 2002
Source: United States (US)
Launch site: SEA LAUNCH (SEAL)

Direct-to-home broadcast of video and Internet; 24 C-band, 16 Ku-band; North America
aabbcc
Your satellite tracking list
Your tracking list is empty




NASA's NSSDC Master Catalog

Two Line Element Set (TLE):
1 27445U 02030A   19140.00394462 -.00000161  00000-0  00000+0 0  9998
2 27445   0.0169 304.2092 0002194  34.4467 165.1020  1.00270527 62034
Source of the keplerian elements: AFSPC